Year,Month,Day,Hour,Minute,Value (Times are PST for temperature in C)
2010,09,30,10,13,14.50
2010,09,30,10,14,14.50
2010,09,30,10,15,14.50
2010,09,30,10,16,14.50
2010,09,30,10,17,14.50
2010,09,30,10,18,14.50
2010,09,30,10,19,14.50
2010,09,30,10,20,14.50
2010,09,30,10,21,14.50
2010,09,30,10,22,14.50
2010,09,30,10,23,14.50
2010,09,30,10,24,14.60
2010,09,30,10,25,14.60
2010,09,30,10,26,14.70
2010,09,30,10,27,14.70
2010,09,30,10,28,14.70
2010,09,30,10,29,14.80
2010,09,30,10,30,14.80
2010,09,30,10,31,14.80
2010,09,30,10,32,14.80
2010,09,30,10,33,14.90
2010,09,30,10,34,14.90
2010,09,30,10,35,15.00
2010,09,30,10,36,15.00
2010,09,30,10,37,15.00
2010,09,30,10,38,15.00
2010,09,30,10,39,15.00
2010,09,30,10,40,15.00
2010,09,30,10,41,15.10
2010,09,30,10,42,15.20
2010,09,30,10,43,15.20
2010,09,30,10,44,15.20
2010,09,30,10,45,15.20
2010,09,30,10,46,15.20
2010,09,30,10,47,15.30
2010,09,30,10,48,15.30
2010,09,30,10,49,15.30
2010,09,30,10,50,15.40
2010,09,30,10,51,15.40
2010,09,30,10,52,15.50
2010,09,30,10,53,15.50
2010,09,30,10,54,15.60
2010,09,30,10,55,15.60
2010,09,30,10,56,15.60
2010,09,30,10,57,15.70
2010,09,30,10,58,15.70
2010,09,30,10,59,15.80
2010,09,30,11,00,15.70
2010,09,30,11,01,15.70
2010,09,30,11,02,15.70
2010,09,30,11,03,15.60
2010,09,30,11,04,15.60
2010,09,30,11,05,15.60
2010,09,30,11,06,15.60
2010,09,30,11,07,15.60
2010,09,30,11,08,15.70
2010,09,30,11,09,15.70
2010,09,30,11,10,15.70
2010,09,30,11,11,15.70
2010,09,30,11,12,15.70
2010,09,30,11,13,15.70
2010,09,30,11,14,15.70
2010,09,30,11,15,15.70
2010,09,30,11,16,15.70
2010,09,30,11,17,15.70
2010,09,30,11,18,15.70
2010,09,30,11,19,15.80
2010,09,30,11,20,15.80
2010,09,30,11,21,15.80
2010,09,30,11,22,15.90
2010,09,30,11,23,15.90
2010,09,30,11,24,16.00
2010,09,30,11,25,16.00
2010,09,30,11,26,16.10
2010,09,30,11,27,16.10
2010,09,30,11,28,16.10
2010,09,30,11,29,16.10
2010,09,30,11,30,16.10
2010,09,30,11,31,16.10
2010,09,30,11,32,16.10
2010,09,30,11,33,16.10
2010,09,30,11,34,16.10
2010,09,30,11,35,16.10
2010,09,30,11,36,16.20
2010,09,30,11,37,16.20
2010,09,30,11,38,16.20
2010,09,30,11,39,16.20
2010,09,30,11,40,16.10
2010,09,30,11,41,16.10
2010,09,30,11,42,16.10
2010,09,30,11,43,16.10
2010,09,30,11,44,16.10
2010,09,30,11,45,16.10
2010,09,30,11,46,16.20
2010,09,30,11,47,16.20
2010,09,30,11,48,16.20
2010,09,30,11,49,16.30
2010,09,30,11,50,16.30
2010,09,30,11,51,16.30
2010,09,30,11,52,16.40
2010,09,30,11,53,16.40
2010,09,30,11,54,16.40
2010,09,30,11,55,16.40
2010,09,30,11,56,16.40
2010,09,30,11,57,16.50
2010,09,30,11,58,16.50
2010,09,30,11,59,16.50
2010,09,30,12,00,16.60
2010,09,30,12,01,16.60
2010,09,30,12,02,16.60
2010,09,30,12,03,16.60
2010,09,30,12,04,16.70
2010,09,30,12,05,16.70
2010,09,30,12,06,16.70
2010,09,30,12,07,16.60
2010,09,30,12,08,16.60
2010,09,30,12,09,16.60
2010,09,30,12,10,16.60
2010,09,30,12,11,16.70
2010,09,30,12,12,16.70
2010,09,30,12,13,16.80
2010,09,30,12,14,16.80
2010,09,30,12,15,16.90
2010,09,30,12,16,16.80
2010,09,30,12,17,16.90
2010,09,30,12,18,16.90
2010,09,30,12,19,17.00
2010,09,30,12,20,17.00
2010,09,30,12,21,16.90
2010,09,30,12,22,16.90
2010,09,30,12,23,17.00
2010,09,30,12,24,17.00
2010,09,30,12,25,17.10
2010,09,30,12,26,17.10
2010,09,30,12,27,17.20
2010,09,30,12,28,17.30
2010,09,30,12,29,17.40
2010,09,30,12,30,17.40
2010,09,30,12,31,17.50
2010,09,30,12,32,17.50
2010,09,30,12,33,17.50
2010,09,30,12,34,17.50
2010,09,30,12,35,17.50
2010,09,30,12,36,17.50
2010,09,30,12,37,17.60
2010,09,30,12,38,17.60
2010,09,30,12,39,17.60
2010,09,30,12,40,17.70
2010,09,30,12,41,17.70
2010,09,30,12,42,17.70
2010,09,30,12,43,17.70
2010,09,30,12,44,17.80
2010,09,30,12,45,17.80
2010,09,30,12,46,17.70
2010,09,30,12,47,17.60
2010,09,30,12,48,17.60
2010,09,30,12,49,17.50
2010,09,30,12,50,17.50
2010,09,30,12,51,17.50
2010,09,30,12,52,17.50
2010,09,30,12,53,17.50
2010,09,30,12,54,17.60
2010,09,30,12,55,17.60
2010,09,30,12,56,17.60
2010,09,30,12,57,17.60
2010,09,30,12,58,17.60
2010,09,30,12,59,17.70
2010,09,30,13,00,17.70
2010,09,30,13,01,17.70
2010,09,30,13,02,17.80
2010,09,30,13,03,17.80
2010,09,30,13,04,17.80
2010,09,30,13,05,17.90
2010,09,30,13,06,17.90
2010,09,30,13,07,17.90
2010,09,30,13,08,17.90
2010,09,30,13,09,17.90
2010,09,30,13,10,18.00
2010,09,30,13,11,17.90
2010,09,30,13,12,18.00
2010,09,30,13,13,18.00
2010,09,30,13,14,18.10
2010,09,30,13,15,18.20
2010,09,30,13,16,18.10
2010,09,30,13,17,18.10
2010,09,30,13,18,18.20
2010,09,30,13,19,18.30
2010,09,30,13,20,18.30
2010,09,30,13,21,18.30
2010,09,30,13,22,18.30
2010,09,30,13,23,18.30
2010,09,30,13,24,18.20
2010,09,30,13,25,18.20
2010,09,30,13,26,18.20
2010,09,30,13,27,18.20
2010,09,30,13,28,18.20
2010,09,30,13,29,18.20
2010,09,30,13,30,18.20
2010,09,30,13,31,18.30
2010,09,30,13,32,18.30
2010,09,30,13,33,18.30
2010,09,30,13,34,18.30
2010,09,30,13,35,18.30
2010,09,30,13,36,18.40
2010,09,30,13,37,18.40
2010,09,30,13,38,18.50
2010,09,30,13,39,18.50
2010,09,30,13,40,18.50
2010,09,30,13,41,18.50
2010,09,30,13,42,18.50
2010,09,30,13,43,18.50
2010,09,30,13,44,18.50
2010,09,30,13,45,18.60
2010,09,30,13,46,18.60
2010,09,30,13,47,18.70
2010,09,30,13,48,18.70
2010,09,30,13,49,18.70
2010,09,30,13,50,18.80
2010,09,30,13,51,18.70
2010,09,30,13,52,18.70
2010,09,30,13,53,18.80
2010,09,30,13,54,18.80
2010,09,30,13,55,18.80
2010,09,30,13,56,18.80
2010,09,30,13,57,18.70
2010,09,30,13,58,18.70
2010,09,30,13,59,18.70
2010,09,30,14,00,18.70
2010,09,30,14,01,18.70
2010,09,30,14,02,18.70
2010,09,30,14,03,18.70
2010,09,30,14,04,18.80
2010,09,30,14,05,18.70
2010,09,30,14,06,18.70
2010,09,30,14,07,18.70
2010,09,30,14,08,18.70
2010,09,30,14,09,18.60
2010,09,30,14,10,18.60
2010,09,30,14,11,18.60
2010,09,30,14,12,18.70
2010,09,30,14,13,18.70
2010,09,30,14,14,18.70
2010,09,30,14,15,18.70
2010,09,30,14,16,18.70
2010,09,30,14,17,18.70
2010,09,30,14,18,18.70
2010,09,30,14,19,18.70
2010,09,30,14,20,18.70
2010,09,30,14,21,18.70
2010,09,30,14,22,18.80
2010,09,30,14,23,18.80
2010,09,30,14,24,18.80
2010,09,30,14,25,18.80
2010,09,30,14,26,18.80
2010,09,30,14,27,18.80
2010,09,30,14,28,18.80
2010,09,30,14,29,18.80
2010,09,30,14,30,18.90
2010,09,30,14,31,18.90
2010,09,30,14,32,18.90
2010,09,30,14,33,18.90
2010,09,30,14,34,18.90
2010,09,30,14,35,18.90
2010,09,30,14,36,18.90
2010,09,30,14,37,18.90
2010,09,30,14,38,18.90
2010,09,30,14,39,18.90
2010,09,30,14,40,18.90
2010,09,30,14,41,19.00
2010,09,30,14,42,19.00
2010,09,30,14,43,19.10
2010,09,30,14,44,19.10
2010,09,30,14,45,19.10
2010,09,30,14,46,19.10
2010,09,30,14,47,19.10
2010,09,30,14,48,19.00
2010,09,30,14,49,19.00
2010,09,30,14,50,19.00
2010,09,30,14,51,18.90
2010,09,30,14,52,18.90
2010,09,30,14,53,18.90
2010,09,30,14,54,18.90
2010,09,30,14,55,18.90
2010,09,30,14,56,18.90
2010,09,30,14,57,18.90
2010,09,30,14,58,18.90
2010,09,30,14,59,18.90
2010,09,30,15,00,19.00
2010,09,30,15,01,19.00
2010,09,30,15,02,19.00
2010,09,30,15,03,19.00
2010,09,30,15,04,19.10
2010,09,30,15,05,19.10
2010,09,30,15,06,19.10
2010,09,30,15,07,19.10
2010,09,30,15,08,19.10
2010,09,30,15,09,19.10
2010,09,30,15,10,19.10
2010,09,30,15,11,19.10
2010,09,30,15,12,19.10
2010,09,30,15,13,19.20
2010,09,30,15,14,19.20
2010,09,30,15,15,19.20
2010,09,30,15,16,19.10
2010,09,30,15,17,19.10
2010,09,30,15,18,19.10
2010,09,30,15,19,19.10
2010,09,30,15,20,19.20
2010,09,30,15,21,19.20
2010,09,30,15,22,19.20
2010,09,30,15,23,19.20
2010,09,30,15,24,19.20
2010,09,30,15,25,19.20
2010,09,30,15,26,19.20
2010,09,30,15,27,19.20
2010,09,30,15,28,19.20
2010,09,30,15,29,19.20
2010,09,30,15,30,19.20
2010,09,30,15,31,19.10
2010,09,30,15,32,19.00
2010,09,30,15,33,19.00
2010,09,30,15,34,18.90
2010,09,30,15,35,19.00
2010,09,30,15,36,19.00
2010,09,30,15,37,19.00
2010,09,30,15,38,18.90
2010,09,30,15,39,18.90
2010,09,30,15,40,18.90
2010,09,30,15,41,19.00
2010,09,30,15,42,19.10
2010,09,30,15,43,19.10
2010,09,30,15,44,19.10
2010,09,30,15,45,19.20
2010,09,30,15,46,19.20
2010,09,30,15,47,19.20
2010,09,30,15,48,19.20
2010,09,30,15,49,19.20
2010,09,30,15,50,19.10
2010,09,30,15,51,19.10
2010,09,30,15,52,19.20
2010,09,30,15,53,19.20
2010,09,30,15,54,19.20
2010,09,30,15,55,19.10
2010,09,30,15,56,19.10
2010,09,30,15,57,19.10
2010,09,30,15,58,19.10
2010,09,30,15,59,19.10
2010,09,30,16,00,19.00
2010,09,30,16,01,19.00
2010,09,30,16,02,18.90
2010,09,30,16,03,18.90
2010,09,30,16,04,18.90
2010,09,30,16,05,18.90
2010,09,30,16,06,18.80
2010,09,30,16,07,18.80
2010,09,30,16,08,18.80
2010,09,30,16,09,18.80
2010,09,30,16,10,18.80
2010,09,30,16,11,18.80
2010,09,30,16,12,18.80
2010,09,30,16,13,18.80
2010,09,30,16,14,18.80
2010,09,30,16,15,18.80
2010,09,30,16,16,18.80
2010,09,30,16,17,18.80
2010,09,30,16,18,18.80
2010,09,30,16,19,18.80
2010,09,30,16,20,18.80
2010,09,30,16,21,18.80
2010,09,30,16,22,18.90
2010,09,30,16,23,18.90
2010,09,30,16,24,18.90
2010,09,30,16,25,18.90
2010,09,30,16,26,18.90
2010,09,30,16,27,18.80
2010,09,30,16,28,18.80
2010,09,30,16,29,18.80
2010,09,30,16,30,18.80
2010,09,30,16,31,18.80
2010,09,30,16,32,18.80
2010,09,30,16,33,18.80
2010,09,30,16,34,18.80
2010,09,30,16,35,18.80
2010,09,30,16,36,18.80
2010,09,30,16,37,18.80
2010,09,30,16,38,18.80
2010,09,30,16,39,18.80
2010,09,30,16,40,18.80
2010,09,30,16,41,18.80
2010,09,30,16,42,18.80
2010,09,30,16,43,18.80
2010,09,30,16,44,18.80
2010,09,30,16,45,18.80
2010,09,30,16,46,18.90
2010,09,30,16,47,18.90
2010,09,30,16,48,18.80
2010,09,30,16,49,18.90
2010,09,30,16,50,18.90
2010,09,30,16,51,18.80
2010,09,30,16,52,18.90
2010,09,30,16,53,18.90
2010,09,30,16,54,18.90
2010,09,30,16,55,18.90
2010,09,30,16,56,18.90
2010,09,30,16,57,18.90
2010,09,30,16,58,18.90
2010,09,30,16,59,18.90
2010,09,30,17,00,18.90
2010,09,30,17,01,18.90
2010,09,30,17,02,18.90
2010,09,30,17,03,18.90
2010,09,30,17,04,18.90
2010,09,30,17,05,18.90
2010,09,30,17,06,18.90
2010,09,30,17,07,18.90
2010,09,30,17,08,18.90
2010,09,30,17,09,18.90
2010,09,30,17,10,18.90
2010,09,30,17,11,18.80
2010,09,30,17,12,18.80
2010,09,30,17,13,18.80
2010,09,30,17,14,18.80
2010,09,30,17,15,18.80
2010,09,30,17,16,18.80
2010,09,30,17,17,18.80
2010,09,30,17,18,18.80
2010,09,30,17,19,18.80
2010,09,30,17,20,18.80
2010,09,30,17,21,18.80
2010,09,30,17,22,18.80
2010,09,30,17,23,18.80
2010,09,30,17,24,18.80
2010,09,30,17,25,18.80
2010,09,30,17,26,18.90
2010,09,30,17,27,18.90
2010,09,30,17,28,18.90
2010,09,30,17,29,18.90
2010,09,30,17,30,18.90
2010,09,30,17,31,18.90
2010,09,30,17,32,18.80
2010,09,30,17,33,18.80
2010,09,30,17,34,18.80
2010,09,30,17,35,18.80
2010,09,30,17,36,18.70
2010,09,30,17,37,18.70
2010,09,30,17,38,18.70
2010,09,30,17,39,18.70
2010,09,30,17,40,18.70
2010,09,30,17,41,18.70
2010,09,30,17,42,18.70
2010,09,30,17,43,18.60
2010,09,30,17,44,18.60
2010,09,30,17,45,18.60
2010,09,30,17,46,18.60
2010,09,30,17,47,18.50
2010,09,30,17,48,18.50
2010,09,30,17,49,18.50
2010,09,30,17,50,18.40
2010,09,30,17,51,18.40
2010,09,30,17,52,18.40
2010,09,30,17,53,18.40
2010,09,30,17,54,18.40
2010,09,30,17,55,18.40
2010,09,30,17,56,18.40
2010,09,30,17,57,18.30
2010,09,30,17,58,18.30
2010,09,30,17,59,18.30
2010,09,30,18,00,18.30
2010,09,30,18,01,18.30
2010,09,30,18,02,18.30
2010,09,30,18,03,18.30
2010,09,30,18,04,18.30
2010,09,30,18,05,18.30
2010,09,30,18,06,18.20
2010,09,30,18,07,18.20
2010,09,30,18,08,18.20
2010,09,30,18,09,18.20
2010,09,30,18,10,18.10
2010,09,30,18,11,18.10
2010,09,30,18,12,18.10
2010,09,30,18,13,18.10
2010,09,30,18,14,18.00
2010,09,30,18,15,18.00
2010,09,30,18,16,18.00
2010,09,30,18,17,17.90
2010,09,30,18,18,17.90
2010,09,30,18,19,17.90
2010,09,30,18,20,17.80
2010,09,30,18,21,17.80
2010,09,30,18,22,17.80
2010,09,30,18,23,17.80
2010,09,30,18,24,17.80
2010,09,30,18,25,17.80
2010,09,30,18,26,17.80
2010,09,30,18,27,17.70
2010,09,30,18,28,17.70
2010,09,30,18,29,17.70
2010,09,30,18,30,17.70
2010,09,30,18,31,17.60
2010,09,30,18,32,17.60
2010,09,30,18,33,17.60
2010,09,30,18,34,17.60
2010,09,30,18,35,17.50
2010,09,30,18,36,17.50
2010,09,30,18,37,17.50
2010,09,30,18,38,17.50
2010,09,30,18,39,17.50
2010,09,30,18,40,17.50
2010,09,30,18,41,17.50
2010,09,30,18,42,17.50
2010,09,30,18,43,17.50
2010,09,30,18,44,17.50
